Location: Kawakawa
(35.3830°S, 174.0670°E)
Time: 06:43:26
(UTC+13:00)

Cosmos 1271 Rocket - Visible Passes

Search period start: 17 October 2019 00:00
Search period end: 27 October 2019 00:00
Orbit: 499 x 546 km, 81.2° (Epoch: 16 October)

Date Brightness Start Highest point End Pass type
(mag) Time Alt. Az. Time Alt. Az. Time Alt. Az.
17 Oct 4.1 20:46:53 10° NNW 20:50:43 42° W 20:54:34 10° S visible
18 Oct 3.9 20:33:53 10° NNW 20:37:46 49° W 20:41:41 10° S visible
19 Oct 3.6 20:20:54 10° NNW 20:24:50 56° W 20:28:48 10° S visible
20 Oct 3.3 20:07:55 10° NNW 20:11:54 65° W 20:15:53 10° S visible
22 Oct 6.3 05:55:38 10° SE 05:57:43 14° ESE 05:59:46 10° ENE visible
23 Oct 6.4 05:43:05 10° SE 05:44:43 12° ESE 05:46:21 10° E visible
24 Oct 6.6 05:30:45 10° SE 05:31:44 11° ESE 05:32:43 10° E visible
